14:46
Airports
History
Links
Donate
Help keep this website running!
PayPal
Bitcoin
This page is community maintained. The information is intended for PC simulator navigation or reference.
Always use approved charts for navigation.
CT60
Canterbury Farm
Canterbury Farm (CT60)
Southbury, Connecticut, United States (6488)
4
Lat/Lng:41° 30' 30.34" N / 73° 18' 28.42" W
41.508428 / -73.307895
Elevation:650'ft / 198mMSL
ID / ICAO:CT60
Runways:1
Longest:(18-36) 434.5m / 1,426ft Grass
Distance To
Airport ID:
Nearby VORs <50NM
Nearby NDBs
Nearby WeatherUpdated 08-22-17 14:18 GMT
Nearby weather at KOXC, Waterbury-oxford located 9.2 nautical miles from CT60
Altimeter: 30.02
Visibility: 7.0 statute miles
Wind: 6 knots (VRB°)
Temp: 24°c 75°f
Humidity: 88.6%

METAR: KOXC 221418Z VRB06KT 7SM BKN010 24/22 A3002 RMK AO2

(Powered by phpweather)
Runway 18 / 36
Dimensions:434.5 x 15.2m 1426' x 50'ft
Surface:Grass
Runway 18 [A]Runway 36 [B]
Heading:166°TH 346°TH
Lat:
Lng:
41° 30' 37.05"N
73° 18' 30.65"W
41° 30' 23.64"N
73° 18' 26.19"W
User Notes and Comments
Google Map
Nearby Airports
(R) Good Hill Farm 3.9 NM
CT59 NE 37°
(R) Docktors Field 5.9 NM
CT51 WNW 287°
4 Candlelight Farms 9.0 NM
11N WNW 297°
(C) Waterbury-oxford 9.2 NM
KOXC (WX) ESE 103°
(R) Flying Ridge Airstrip 9.7 NM
CT52 S 174°
(R) Long View Landing 11.0 NM
CT66 N
(R) Whelan Farms 12.5 NM
CT01 NNE 29°
VFR Chart
Flight Planning at SkyVector.com